Location: �couen
(49.0206°N, 2.3831°E)
Time: 13:24:46
(UTC+00:00)

FENGYUN 1C DEB - Visible Passes

Search period start: 01 April 2023 00:00
Search period end: 11 April 2023 00:00
Orbit: 839 x 950 km, 98.8° (Epoch: 01 April)

Date Brightness Start Highest point End Pass type
(mag) Time Alt. Az. Time Alt. Az. Time Alt. Az.
01 Apr ? 20:16:36 10° SSW 20:22:02 37° W 20:27:22 10° NNW visible
02 Apr ? 20:17:40 10° SSW 20:23:03 36° W 20:28:20 10° NNW visible
03 Apr ? 20:18:43 10° SSW 20:24:03 35° W 20:29:18 10° NNW visible
04 Apr ? 20:19:45 10° SSW 20:25:04 35° W 20:30:17 10° NNW visible
05 Apr ? 20:20:48 10° SSW 20:26:04 34° W 20:31:15 10° NNW visible
06 Apr ? 20:21:50 10° SSW 20:27:04 33° W 20:32:13 10° NNW visible
07 Apr ? 20:22:53 10° SSW 20:28:04 33° W 20:33:10 10° NNW visible
08 Apr ? 20:23:55 10° SSW 20:29:03 32° W 20:34:07 10° NNW visible
09 Apr ? 20:24:56 10° SSW 20:30:02 31° W 20:35:04 10° NNW visible
10 Apr ? 20:25:58 10° SSW 20:31:01 31° W 20:36:00 10° NNW visible
